Location: Newark
(40.2531°N, 0.7525°W)
Time: 04:22:32
(UTC+00:00)

Hubble Space Telescope - Pass Details

Date: 28 March 2019
Orbit: 537 x 540 km, 28.5° (Epoch: 22 April)

Event Time Altitude Azimuth Distance (km) Brightness Sun altitude
Rises 19:31:51 0° 238° (WSW) 2,673 5.0 -13.7°
Reaches altitude 10° 19:34:49 10° 216° (SW) 1,783 3.7 -14.3°
Maximum altitude 19:37:20 16° 178° (S) 1,453 2.8 -14.7°
Enters shadow 19:38:32 14° 158° (SSE) 1,535 2.7 -14.9°
